BAW19BD LGAV-HEAX

Flight info

Callsign BAW19BD
Flight time 1h 26m
Altitude 39000
Route KEA1E KEA UL607 PAXIS L607 NABSI L617 NOZ DCT
Aircraft A319/M-SDE3FGIJ1KRWXY/LB1

Departure

Time 2026-04-15 13:30
Airport Athens Eleftherios Venizelos International Airport (LGAV)

Arrival

Time 2026-04-15 14:56
Airport Alexandria International Airport (HEAX)
Time Latitude Longitude Altitude Speed Heading
2026-04-15 12:54 37.93332 23.94572 301 ft 0 kts 306°
2026-04-15 13:20 37.93329 23.94577 301 ft 3 kts 306°
2026-04-15 13:20 37.93313 23.94604 301 ft 4 kts 308°
2026-04-15 13:20 37.93297 23.94631 300 ft 4 kts 292°
2026-04-15 13:20 37.93294 23.94661 300 ft 4 kts 244°
2026-04-15 13:21 37.93301 23.94675 299 ft 0 kts 217°
2026-04-15 13:23 37.93300 23.94673 299 ft 2 kts 217°
2026-04-15 13:23 37.93271 23.94646 301 ft 8 kts 217°
2026-04-15 13:23 37.93215 23.94592 301 ft 12 kts 217°
2026-04-15 13:23 37.93162 23.94502 301 ft 14 kts 283°
2026-04-15 13:24 37.93222 23.94390 302 ft 17 kts 307°
2026-04-15 13:24 37.93283 23.94259 304 ft 17 kts 262°
2026-04-15 13:24 37.93192 23.94148 302 ft 19 kts 217°
2026-04-15 13:24 37.93095 23.94043 301 ft 15 kts 247°
2026-04-15 13:25 37.93141 23.93922 301 ft 17 kts 308°
2026-04-15 13:25 37.93218 23.93796 301 ft 19 kts 307°
2026-04-15 13:25 37.93304 23.93652 301 ft 22 kts 306°
2026-04-15 13:25 37.93389 23.93508 300 ft 20 kts 306°
2026-04-15 13:26 37.93395 23.93352 299 ft 22 kts 217°
2026-04-15 13:26 37.93263 23.93231 300 ft 24 kts 216°
2026-04-15 13:26 37.93127 23.93096 299 ft 26 kts 217°
2026-04-15 13:26 37.92975 23.92954 300 ft 28 kts 217°
2026-04-15 13:27 37.92815 23.92803 301 ft 30 kts 217°
2026-04-15 13:27 37.92649 23.92646 301 ft 30 kts 217°
2026-04-15 13:27 37.92476 23.92481 302 ft 32 kts 217°
2026-04-15 13:27 37.92309 23.92323 302 ft 25 kts 216°
2026-04-15 13:28 37.92168 23.92188 303 ft 26 kts 217°
2026-04-15 13:28 37.92137 23.92029 303 ft 22 kts 304°
2026-04-15 13:28 37.92219 23.91955 304 ft 11 kts 36°
2026-04-15 13:28 37.92231 23.91968 304 ft 0 kts 40°
2026-04-15 13:29 37.92236 23.91973 304 ft 8 kts 39°
2026-04-15 13:29 37.92460 23.92189 303 ft 72 kts 36°
2026-04-15 13:29 37.93023 23.92722 293 ft 129 kts 37°
2026-04-15 13:29 37.93811 23.93476 697 ft 143 kts 38°
2026-04-15 13:30 37.94602 23.94250 1363 ft 146 kts 39°
2026-04-15 13:30 37.95417 23.95050 1975 ft 151 kts 36°
2026-04-15 13:30 37.96328 23.95877 2424 ft 172 kts 35°
2026-04-15 13:30 37.97379 23.96814 2832 ft 197 kts 36°
2026-04-15 13:31 37.98562 23.97878 3369 ft 221 kts 37°
2026-04-15 13:31 37.99870 23.99063 4035 ft 239 kts 38°
2026-04-15 13:31 38.01243 24.00314 4984 ft 246 kts 39°
2026-04-15 13:31 38.02652 24.01604 5922 ft 254 kts 39°
2026-04-15 13:32 38.04103 24.02939 6822 ft 261 kts 39°
2026-04-15 13:32 38.05586 24.04311 7734 ft 267 kts 39°
2026-04-15 13:32 38.07109 24.05720 8586 ft 274 kts 39°
2026-04-15 13:32 38.08460 24.07392 9065 ft 272 kts 58°
2026-04-15 13:33 38.09273 24.09555 9825 ft 272 kts 79°
2026-04-15 13:33 38.09485 24.12000 10304 ft 289 kts 97°
2026-04-15 13:33 38.08988 24.14549 10634 ft 309 kts 113°
2026-04-15 13:33 38.08150 24.17153 10992 ft 327 kts 122°
2026-04-15 13:34 38.06740 24.19384 11610 ft 331 kts 141°
2026-04-15 13:34 38.04809 24.20948 12358 ft 330 kts 160°
2026-04-15 13:34 38.02569 24.21668 13197 ft 329 kts 175°
2026-04-15 13:34 38.00329 24.22069 14024 ft 330 kts 176°
2026-04-15 13:35 37.98039 24.22469 14711 ft 334 kts 176°
2026-04-15 13:35 37.95719 24.22870 15332 ft 340 kts 176°
2026-04-15 13:35 37.93353 24.23278 15960 ft 346 kts 175°
2026-04-15 13:35 37.90947 24.23697 16570 ft 352 kts 175°
2026-04-15 13:36 37.88503 24.24124 17169 ft 358 kts 175°
2026-04-15 13:36 37.86014 24.24562 17776 ft 365 kts 175°
2026-04-15 13:36 37.83472 24.25011 18377 ft 371 kts 174°
2026-04-15 13:36 37.80899 24.25466 18922 ft 376 kts 174°
2026-04-15 13:37 37.78297 24.25924 19515 ft 379 kts 175°
2026-04-15 13:37 37.75668 24.26383 20144 ft 382 kts 175°
2026-04-15 13:37 37.73028 24.26843 20770 ft 385 kts 175°
2026-04-15 13:37 37.70361 24.27308 21378 ft 388 kts 175°
2026-04-15 13:38 37.67686 24.27774 21987 ft 390 kts 175°
2026-04-15 13:38 37.64985 24.28246 22582 ft 393 kts 175°
2026-04-15 13:38 37.62272 24.28723 23163 ft 396 kts 175°
2026-04-15 13:38 37.59532 24.29204 23721 ft 399 kts 175°
2026-04-15 13:39 37.56812 24.29876 24179 ft 404 kts 167°
2026-04-15 13:39 37.54168 24.31170 24646 ft 411 kts 156°
2026-04-15 13:39 37.51695 24.33016 25099 ft 415 kts 151°
2026-04-15 13:39 37.49235 24.34962 25561 ft 418 kts 151°
2026-04-15 13:40 37.46775 24.36899 26018 ft 420 kts 151°
2026-04-15 13:40 37.44284 24.38855 26454 ft 422 kts 152°
2026-04-15 13:40 37.41787 24.40812 26891 ft 425 kts 152°
2026-04-15 13:40 37.39266 24.42785 27333 ft 427 kts 151°
2026-04-15 13:41 37.36735 24.44771 27777 ft 430 kts 151°
2026-04-15 13:41 37.34196 24.46760 28196 ft 432 kts 151°
2026-04-15 13:41 37.31639 24.48761 28621 ft 435 kts 151°
2026-04-15 13:41 37.29063 24.50778 29038 ft 437 kts 151°
2026-04-15 13:42 37.26473 24.52803 29443 ft 440 kts 151°
2026-04-15 13:42 37.23862 24.54840 29842 ft 442 kts 151°
2026-04-15 13:42 37.21246 24.56877 30215 ft 445 kts 151°
2026-04-15 13:42 37.18605 24.58934 30545 ft 447 kts 151°
2026-04-15 13:43 37.15953 24.61001 30863 ft 449 kts 151°
2026-04-15 13:43 37.13294 24.63071 31182 ft 451 kts 151°
2026-04-15 13:43 37.10617 24.65149 31498 ft 453 kts 151°
2026-04-15 13:43 37.07933 24.67229 31853 ft 454 kts 151°
2026-04-15 13:44 37.05248 24.69311 32313 ft 453 kts 151°
2026-04-15 13:44 37.02577 24.71384 32785 ft 451 kts 151°
2026-04-15 13:44 36.99917 24.73446 33256 ft 450 kts 151°
2026-04-15 13:44 36.97295 24.75476 33722 ft 448 kts 151°
2026-04-15 13:45 36.94611 24.77554 34188 ft 447 kts 151°
2026-04-15 13:45 36.92011 24.79567 34601 ft 446 kts 151°
2026-04-15 13:45 36.89374 24.81611 35024 ft 445 kts 151°
2026-04-15 13:47 36.71100 24.95718 37692 ft 439 kts 151°
2026-04-15 13:47 36.68508 24.97716 38044 ft 438 kts 151°
2026-04-15 13:47 36.65925 24.99707 38387 ft 437 kts 151°
2026-04-15 13:48 36.63330 25.01699 38732 ft 436 kts 152°
2026-04-15 13:48 36.60758 25.03672 38977 ft 435 kts 151°
2026-04-15 13:48 36.55620 25.07607 39052 ft 432 kts 152°
2026-04-15 13:49 36.50502 25.11524 39055 ft 432 kts 152°
2026-04-15 13:49 36.45381 25.15424 39048 ft 432 kts 152°
2026-04-15 13:50 36.40260 25.19310 39046 ft 432 kts 152°
2026-04-15 13:50 36.35135 25.23206 39041 ft 432 kts 152°
2026-04-15 13:51 36.30016 25.27096 39036 ft 432 kts 152°
2026-04-15 13:51 36.24928 25.30958 39037 ft 432 kts 152°
2026-04-15 13:52 36.19803 25.34836 39028 ft 432 kts 152°
2026-04-15 13:52 36.14683 25.38709 39032 ft 431 kts 152°
2026-04-15 13:53 36.09564 25.42567 39037 ft 431 kts 152°
2026-04-15 13:53 36.04432 25.46431 39026 ft 431 kts 152°
2026-04-15 13:54 35.99316 25.50279 39030 ft 432 kts 152°
2026-04-15 13:54 35.94176 25.54149 39028 ft 432 kts 152°
2026-04-15 13:55 35.89041 25.58008 39025 ft 432 kts 152°
2026-04-15 13:55 35.83904 25.61860 39027 ft 432 kts 152°
2026-04-15 13:56 35.78764 25.65707 39016 ft 432 kts 152°
2026-04-15 13:56 35.73621 25.69541 39028 ft 432 kts 152°
2026-04-15 13:57 35.68488 25.73369 39034 ft 431 kts 152°
2026-04-15 13:57 35.63359 25.77199 39037 ft 431 kts 152°
2026-04-15 13:58 35.58230 25.81015 39038 ft 431 kts 152°
2026-04-15 13:58 35.53099 25.84820 39036 ft 431 kts 152°
2026-04-15 13:59 35.47987 25.88603 39036 ft 431 kts 153°
2026-04-15 13:59 35.42825 25.92424 39033 ft 431 kts 152°
2026-04-15 14:00 35.37727 25.96202 39026 ft 431 kts 153°
2026-04-15 14:00 35.32597 25.99990 39032 ft 431 kts 153°
2026-04-15 14:01 35.24903 26.05654 39019 ft 431 kts 153°
2026-04-15 14:02 35.19759 26.09430 39018 ft 431 kts 153°
2026-04-15 14:02 35.14611 26.13212 39019 ft 431 kts 153°
2026-04-15 14:03 35.09470 26.16985 39020 ft 432 kts 153°
2026-04-15 14:03 35.05350 26.20447 39021 ft 436 kts 143°
2026-04-15 14:04 35.00710 26.25302 39019 ft 437 kts 143°
2026-04-15 14:04 34.96095 26.30112 39010 ft 437 kts 143°
2026-04-15 14:05 34.91495 26.34889 39009 ft 437 kts 143°
2026-04-15 14:05 34.86864 26.39698 39010 ft 437 kts 143°
2026-04-15 14:06 34.82229 26.44493 39017 ft 438 kts 143°
2026-04-15 14:06 34.77584 26.49282 39016 ft 438 kts 143°
2026-04-15 14:07 34.72946 26.54073 39015 ft 438 kts 143°
2026-04-15 14:07 34.68297 26.58867 39008 ft 438 kts 144°
2026-04-15 14:08 34.63658 26.63648 38993 ft 438 kts 144°
2026-04-15 14:08 34.59009 26.68434 38992 ft 439 kts 144°
2026-04-15 14:09 34.54342 26.73220 38994 ft 440 kts 144°
2026-04-15 14:09 34.49663 26.78014 38996 ft 440 kts 144°
2026-04-15 14:10 34.44975 26.82805 39002 ft 440 kts 144°
2026-04-15 14:10 34.40322 26.87561 38985 ft 441 kts 144°
2026-04-15 14:11 34.35606 26.92375 38993 ft 441 kts 144°
2026-04-15 14:11 34.30938 26.97128 38984 ft 442 kts 144°
2026-04-15 14:12 34.26232 27.01916 38989 ft 443 kts 144°
2026-04-15 14:12 34.21520 27.06700 38994 ft 443 kts 144°
2026-04-15 14:13 34.16798 27.11484 38991 ft 443 kts 144°
2026-04-15 14:13 34.12081 27.16260 38998 ft 443 kts 144°
2026-04-15 14:14 34.07350 27.21043 38981 ft 443 kts 145°
2026-04-15 14:14 34.02624 27.25806 38979 ft 444 kts 145°
2026-04-15 14:15 33.97871 27.30588 38983 ft 445 kts 145°
2026-04-15 14:15 33.92989 27.35085 38992 ft 441 kts 151°
2026-04-15 14:16 33.87883 27.39200 38983 ft 441 kts 151°
2026-04-15 14:16 33.82775 27.43318 38987 ft 442 kts 151°
2026-04-15 14:17 33.77669 27.47431 38984 ft 442 kts 151°
2026-04-15 14:17 33.72551 27.51528 38966 ft 442 kts 152°
2026-04-15 14:18 33.67431 27.55628 38967 ft 443 kts 152°
2026-04-15 14:18 33.62302 27.59742 38970 ft 444 kts 152°
2026-04-15 14:19 33.57163 27.63856 38973 ft 444 kts 152°
2026-04-15 14:19 33.52011 27.67961 38978 ft 444 kts 152°
2026-04-15 14:20 33.46870 27.72056 38982 ft 444 kts 152°
2026-04-15 14:20 33.41714 27.76159 38964 ft 445 kts 152°
2026-04-15 14:21 33.36551 27.80260 38963 ft 446 kts 152°
2026-04-15 14:21 33.31368 27.84379 38963 ft 447 kts 152°
2026-04-15 14:22 33.26217 27.88460 38965 ft 447 kts 152°
2026-04-15 14:22 33.21028 27.92566 38968 ft 448 kts 152°
2026-04-15 14:23 33.15838 27.96661 38962 ft 448 kts 152°
2026-04-15 14:23 33.10638 28.00761 38962 ft 448 kts 152°
2026-04-15 14:24 33.05424 28.04867 38962 ft 449 kts 152°
2026-04-15 14:24 33.00213 28.08970 38955 ft 449 kts 152°
2026-04-15 14:25 32.94999 28.13081 38959 ft 449 kts 152°
2026-04-15 14:25 32.89780 28.17175 38960 ft 449 kts 152°
2026-04-15 14:26 32.84551 28.21267 38953 ft 450 kts 153°
2026-04-15 14:26 32.79321 28.25350 38948 ft 451 kts 153°
2026-04-15 14:27 32.74071 28.29448 38961 ft 452 kts 153°
2026-04-15 14:27 32.68812 28.33546 38963 ft 452 kts 153°
2026-04-15 14:28 32.63555 28.37642 38950 ft 452 kts 153°
2026-04-15 14:28 32.58291 28.41743 38959 ft 452 kts 153°
2026-04-15 14:29 32.53028 28.45826 38969 ft 453 kts 153°
2026-04-15 14:29 32.47760 28.49909 38966 ft 453 kts 153°
2026-04-15 14:30 32.42485 28.53986 38967 ft 453 kts 153°
2026-04-15 14:30 32.37216 28.58072 38966 ft 453 kts 153°
2026-04-15 14:31 32.31949 28.62151 38964 ft 453 kts 153°
2026-04-15 14:31 32.26672 28.66226 38941 ft 453 kts 153°
2026-04-15 14:32 32.21417 28.70255 38932 ft 454 kts 153°
2026-04-15 14:32 32.18770 28.72283 38828 ft 455 kts 153°
2026-04-15 14:32 32.16124 28.74315 38586 ft 454 kts 153°
2026-04-15 14:32 32.13478 28.76354 38285 ft 452 kts 153°
2026-04-15 14:33 32.10842 28.78386 37610 ft 455 kts 153°
2026-04-15 14:33 32.08188 28.80426 36928 ft 456 kts 153°
2026-04-15 14:33 32.05527 28.82465 36208 ft 458 kts 152°
2026-04-15 14:33 32.03714 28.83850 35681 ft 460 kts 152°
2026-04-15 14:34 32.00137 28.86579 34559 ft 465 kts 152°
2026-04-15 14:34 31.97397 28.88670 33662 ft 469 kts 152°
2026-04-15 14:34 31.94665 28.90761 32689 ft 469 kts 151°
2026-04-15 14:34 31.91941 28.92848 31882 ft 464 kts 151°
2026-04-15 14:35 31.89270 28.94894 31397 ft 452 kts 151°
2026-04-15 14:35 31.86654 28.96897 30803 ft 444 kts 151°
2026-04-15 14:35 31.84090 28.98858 30245 ft 436 kts 151°
2026-04-15 14:35 31.81569 29.00781 29630 ft 429 kts 151°
2026-04-15 14:36 31.79080 29.02674 29061 ft 421 kts 151°
2026-04-15 14:36 31.76649 29.04517 28529 ft 413 kts 151°
2026-04-15 14:36 31.74328 29.06469 28000 ft 409 kts 144°
2026-04-15 14:36 31.72281 29.08779 27498 ft 407 kts 135°
2026-04-15 14:37 31.70543 29.11389 26999 ft 405 kts 129°
2026-04-15 14:37 31.68912 29.14066 26502 ft 404 kts 129°
2026-04-15 14:37 31.67271 29.16753 26001 ft 404 kts 129°
2026-04-15 14:37 31.65633 29.19429 25524 ft 403 kts 129°
2026-04-15 14:38 31.64005 29.22087 25048 ft 402 kts 129°
2026-04-15 14:38 31.62377 29.24743 24587 ft 400 kts 129°
2026-04-15 14:38 31.60756 29.27388 24126 ft 398 kts 129°
2026-04-15 14:38 31.59138 29.30023 23699 ft 396 kts 129°
2026-04-15 14:39 31.57535 29.32629 23207 ft 394 kts 129°
2026-04-15 14:39 31.55938 29.35220 22771 ft 389 kts 129°
2026-04-15 14:39 31.54364 29.37776 22346 ft 384 kts 129°
2026-04-15 14:39 31.52810 29.40304 21896 ft 380 kts 129°
2026-04-15 14:40 31.51271 29.42805 21450 ft 376 kts 129°
2026-04-15 14:40 31.49752 29.45265 20994 ft 372 kts 129°
2026-04-15 14:40 31.48257 29.47679 20544 ft 369 kts 129°
2026-04-15 14:40 31.46756 29.50102 20081 ft 366 kts 129°
2026-04-15 14:41 31.45267 29.52504 19612 ft 363 kts 129°
2026-04-15 14:41 31.43764 29.54930 19136 ft 361 kts 128°
2026-04-15 14:41 31.42314 29.57267 18657 ft 359 kts 129°
2026-04-15 14:41 31.40855 29.59618 18182 ft 357 kts 129°
2026-04-15 14:42 31.39398 29.61965 17639 ft 354 kts 129°
2026-04-15 14:42 31.37960 29.64278 17169 ft 350 kts 128°
2026-04-15 14:42 31.36538 29.66565 16692 ft 346 kts 128°
2026-04-15 14:42 31.35132 29.68826 16209 ft 342 kts 129°
2026-04-15 14:43 31.33738 29.71064 15742 ft 339 kts 129°
2026-04-15 14:43 31.32355 29.73285 15274 ft 335 kts 128°
2026-04-15 14:43 31.30992 29.75472 14806 ft 332 kts 128°
2026-04-15 14:43 31.29635 29.77652 14343 ft 329 kts 128°
2026-04-15 14:44 31.28297 29.79797 13880 ft 326 kts 127°
2026-04-15 14:44 31.26966 29.81932 13389 ft 324 kts 128°
2026-04-15 14:44 31.25646 29.84051 12911 ft 320 kts 129°
2026-04-15 14:44 31.24342 29.86141 12461 ft 316 kts 128°
2026-04-15 14:45 31.23049 29.88211 12014 ft 313 kts 128°
2026-04-15 14:45 31.21774 29.90251 11563 ft 310 kts 128°
2026-04-15 14:45 31.20506 29.92278 11126 ft 308 kts 127°
2026-04-15 14:45 31.19142 29.94193 10685 ft 305 kts 136°
2026-04-15 14:46 31.17489 29.95725 10265 ft 302 kts 148°
2026-04-15 14:46 31.15665 29.96836 10130 ft 290 kts 154°
2026-04-15 14:46 31.13887 29.97851 9959 ft 280 kts 154°
2026-04-15 14:46 31.12175 29.98836 9897 ft 278 kts 154°
2026-04-15 14:47 31.10381 29.99723 9623 ft 285 kts 163°
2026-04-15 14:47 31.08399 29.99989 9088 ft 290 kts 182°
2026-04-15 14:47 31.06441 29.99514 8844 ft 284 kts 197°
2026-04-15 14:47 31.04579 29.98764 8422 ft 284 kts 198°
2026-04-15 14:48 31.02701 29.98022 7973 ft 285 kts 198°
2026-04-15 14:48 31.00831 29.97287 7484 ft 283 kts 197°
2026-04-15 14:48 30.98977 29.96560 6943 ft 280 kts 198°
2026-04-15 14:48 30.97136 29.95841 6373 ft 277 kts 197°
2026-04-15 14:49 30.95356 29.95150 6149 ft 260 kts 197°
2026-04-15 14:49 30.93696 29.94505 5998 ft 244 kts 197°
2026-04-15 14:49 30.92110 29.93886 5624 ft 239 kts 197°
2026-04-15 14:49 30.90534 29.93271 5153 ft 237 kts 197°
2026-04-15 14:50 30.88973 29.92660 4590 ft 237 kts 198°
2026-04-15 14:50 30.87408 29.92047 4017 ft 237 kts 197°
2026-04-15 14:50 30.85840 29.91433 3508 ft 238 kts 197°
2026-04-15 14:50 30.84277 29.90821 3127 ft 236 kts 197°
2026-04-15 14:51 30.82717 29.90211 2740 ft 236 kts 195°
2026-04-15 14:51 30.81190 29.89569 2489 ft 230 kts 203°
2026-04-15 14:51 30.79883 29.88569 2362 ft 224 kts 218°
2026-04-15 14:51 30.78881 29.87186 2255 ft 225 kts 238°
2026-04-15 14:52 30.78446 29.86090 2184 ft 225 kts 252°
2026-04-15 14:52 30.78197 29.84331 2083 ft 215 kts 271°
2026-04-15 14:52 30.78413 29.82671 2018 ft 204 kts 289°
2026-04-15 14:52 30.79015 29.81208 1989 ft 198 kts 306°
2026-04-15 14:53 30.79917 29.80029 1981 ft 194 kts 320°
2026-04-15 14:53 30.80992 29.79078 1991 ft 194 kts 324°
2026-04-15 14:53 30.82071 29.78132 1990 ft 194 kts 326°
2026-04-15 14:53 30.83133 29.77199 1875 ft 184 kts 326°
2026-04-15 14:54 30.84126 29.76329 1688 ft 173 kts 325°
2026-04-15 14:54 30.85058 29.75511 1481 ft 162 kts 326°
2026-04-15 14:54 30.85929 29.74747 1288 ft 151 kts 329°
2026-04-15 14:54 30.86740 29.74029 1121 ft 143 kts 329°
2026-04-15 14:55 30.87528 29.73337 919 ft 141 kts 329°
2026-04-15 14:55 30.88303 29.72647 722 ft 138 kts 332°
2026-04-15 14:55 30.89069 29.72009 582 ft 134 kts 330°
2026-04-15 14:55 30.89802 29.71330 391 ft 133 kts 330°
2026-04-15 14:56 30.90530 29.70707 213 ft 129 kts 329°
2026-04-15 14:56 30.91201 29.70115 164 ft 108 kts 328°
2026-04-15 14:56 30.91712 29.69670 161 ft 69 kts 322°
2026-04-15 14:56 30.91954 29.69452 162 ft 19 kts 323°
2026-04-15 14:57 30.92055 29.69370 162 ft 20 kts 326°
2026-04-15 14:57 30.92180 29.69263 163 ft 24 kts 323°
2026-04-15 14:57 30.92319 29.69144 163 ft 27 kts 324°
2026-04-15 14:57 30.92449 29.69033 163 ft 22 kts 330°
2026-04-15 14:58 30.92566 29.69129 163 ft 25 kts 52°
2026-04-15 14:58 30.92679 29.69302 164 ft 29 kts 53°
2026-04-15 14:58 30.92811 29.69504 165 ft 33 kts 53°
2026-04-15 14:58 30.92949 29.69611 166 ft 22 kts 332°
2026-04-15 14:59 30.93027 29.69550 166 ft 12 kts 324°
2026-04-15 14:59 30.93104 29.69479 167 ft 16 kts 321°
2026-04-15 14:59 30.93180 29.69416 167 ft 8 kts 349°
2026-04-15 14:59 30.93214 29.69447 167 ft 6 kts 37°
2026-04-15 15:00 30.93238 29.69466 165 ft 1 kts 39°
2026-04-15 15:00 30.93242 29.69469 168 ft 1 kts 30°
2026-04-15 15:00 30.93247 29.69473 168 ft 1 kts 30°
2026-04-15 15:00 30.93252 29.69476 168 ft 0 kts 32°